Regional Weather Roundup
Issued by NWS

Home | Current Version | Previous Version | Text Only | Print | Product List | Glossary Off
Versions: 1 2 3 4 5 6 7 8 9 10 11 12 13 14 15 16 17 18 19 20 21 22 23 24 25 26 27 28 29 30 31 32 33 34 35 36 37 38 39 40 41 42 43 44 45 46 47 48 49 50

261
ASUS45 KTFX 131910
RWRMT
MONTANA REGIONAL WEATHER ROUNDUP
NATIONAL WEATHER SERVICE GREAT FALLS MT
1200 PM MST SAT FEB 13 2016

NOTE: "FAIR" INDICATES FEW OR NO CLOUDS BELOW 12000 FEET WITH NO
SIGNIFICANT WEATHER AND/OR OBSTRUCTIONS TO VISIBILITY.

MTZ001>007-043-132000-
WEST OF THE DIVIDE

CITY           SKY/WX    TMP DP  RH WIND       PRES   REMARKS
KALISPELL      CLOUDY    40  32  73 S6        30.09R
MISSOULA       CLOUDY    42  36  79 CALM      30.17S
BUTTE          MOSUNNY   35  19  52 NW17G24   30.07F WCI  25
MULLAN PASS    CLOUDY    27  26  96 VRB7G17   30.11R FOG     WCI  19
ANACONDA         N/A     37  23  56 W26G33    30.08R WCI  26
DEER LODGE       N/A     39  25  56 W14G25    30.08S WCI  31
HAMILTON         N/A     43  28  56 SE12G17   30.16R
PLAINS           N/A     46  33  60 S8        30.14
$$

MTZ008-052>055-132000-
SOUTHWEST MONTANA

CITY           SKY/WX    TMP DP  RH WIND       PRES   REMARKS
BOZEMAN        CLOUDY    34  31  88 SE6       30.07S WCI  29
DILLON         CLOUDY    40  18  41 NW12G20   30.11R
ENNIS          CLOUDY    37  21  52 SW6       30.14F
TWIN BRIDGES     N/A     41  20  43 W12       30.07
$$

MTZ009-010-012-014-046-048-049-054-132000-
EAST SLOPES AND CENTRAL MONTANA

CITY           SKY/WX    TMP DP  RH WIND       PRES   REMARKS
CUT BANK       CLOUDY    46  24  42 W28G38    29.90S
GREAT FALLS    CLOUDY    45  20  36 W25G35    29.94R
MALMSTROM AFB  CLOUDY    46  21  36 W20G32    29.95R
HELENA         CLOUDY    46  25  43 W16G31    30.04R
CHOTEAU          N/A     45  19  36 W15G26    29.95R
CONRAD           N/A     47  29  50 W24       29.94S
$$

MTZ011-013-016-021-045-047-050-051-132000-
NORTH CENTRAL MONTANA

CITY           SKY/WX    TMP DP  RH WIND       PRES   REMARKS
HAVRE          CLOUDY    46  30  53 W26G36    29.82F
LEWISTOWN      CLOUDY    42  26  53 NW20G26   29.90R
N BAR RANCH      N/A     43  23  45 NW23G35   29.90R
CHINOOK          N/A     48  30  49 W22G31    29.80F
$$

MTZ017>020-022>027-061-062-132000-
NORTHEAST MONTANA

CITY           SKY/WX    TMP DP  RH WIND       PRES   REMARKS
GLASGOW        CLOUDY    27  25  92 CALM      29.79F
JORDAN           N/A     38  35  89 W5        29.81F
SIDNEY         CLOUDY    27  19  74 SE9       29.87F WCI  17
PLENTYWOOD       N/A     19  16  86 SE12      29.85F WCI   7
POPLAR           N/A     28  23  80 CALM      29.84F
SCOBEY           N/A     20   9  62 S2        29.81F
$$

MTZ028>42-056>058-132000-
SOUTHCENTRAL AND SOUTHEAST MONTANA

CITY           SKY/WX    TMP DP  RH WIND       PRES   REMARKS
BAKER          PTSUNNY   41  32  70 SE10      29.80F
BILLINGS       CLOUDY    43  27  53 W22G39    29.92R
LIVINGSTON     CLOUDY    37  29  72 W21G30    30.01F WCI  26
MILES CITY     CLOUDY    42  32  67 W7        29.82S
FORSYTH          N/A     45  34  65 W13G20    29.85R
LAUREL           N/A     39  31  73 SW13      29.94R WCI  31
ROUNDUP          N/A     42  31  65 SW15      29.82F
$$

REGIONAL REPORTS...DAKOTAS

CITY           SKY/WX    TMP DP  RH WIND       PRES   REMARKS
WILLISTON      CLOUDY    21  13  71 S10       29.91S WCI  10
MINOT          CLOUDY    17   5  59 SE17G25   30.02F WCI   1
DICKINSON      CLOUDY    16  13  88 S26       29.83F FOG     WCI  -3
BEACH          LGT RAIN  28  27  93 S10       29.88R WCI  19
CROSBY         CLOUDY    18  14  86 S13       29.93S WCI   4
TIOGA          PTSUNNY   14  12  92 SE17      29.94F WCI  -3
WATFORD CITY     N/A     19  14  79 SE12G18   29.89F WCI   7
BISMARCK       CLOUDY    15   5  64 S23       30.09F WCI  -3
GRAND FORKS    MOSUNNY    5  -5  63 S17       30.39F WCI -14
FARGO          SUNNY      9  -3  58 SE21G26   30.39F WCI -11
BUFFALO SD       N/A     27  24  89 S13       29.77F WCI  16
RAPID CITY     CLOUDY    43  32  65 S8        29.88F
$$

REGIONAL REPORTS...WYOMING/IDAHO/WASHINGTON

CITY           SKY/WX    TMP DP  RH WIND       PRES   REMARKS
GILLETTE       SUNNY     56  31  38 SW16      29.82F
SHERIDAN       MOSUNNY   63  18  17 NW14      29.76F
BUFFALO WY       N/A     56  29  35 NE8       29.83F
CODY           PTSUNNY   54  19  26 W14G20    29.87F
YELLOWSTONE LA   N/A     26  22  84 VRB7      30.05R WCI  18
IDAHO FALLS    MOSUNNY   35  28  75 W17G29    30.18R WCI  25
SALMON         MOSUNNY   37  28  70 NE9       30.19F WCI  31
BOISE          SUNNY     45  34  65 NW6       30.34S
SPOKANE        PTSUNNY   41  34  76 SW21      30.21S
$$

REGIONAL REPORTS...ALBERTA

CITY           SKY/WX    TMP DP  RH WIND       PRES   REMARKS
EDMONTON       MOSUNNY   37  27  65 W17       29.76S WCI  28
CALGARY        PTSUNNY   39  30  70 N6        29.86R
LETHBRIDGE     PTSUNNY   46  28  49 NW15      29.91R
MEDICINE HAT   CLOUDY    34  28  80 NW6       29.86R WCI  29
WATERTON GATE    N/A     41  23  48 SW15G22     N/A
MILK RIVER       N/A     46  23  39 W33G43      N/A
$$

REGIONAL REPORTS...SASKATCHEWAN

CITY           SKY/WX    TMP DP  RH WIND       PRES   REMARKS
SWIFT CURRENT  CLOUDY    30  30 100 W28G35    29.67S WCI  16
REGINA         CLOUDY    18  12  79 SE24G33   29.82F WCI   0
SASKATOON      LGT SNOW  18  16  93 E6        29.80F WCI   9
CYPRESS HILLS    N/A     28  27  93 NW13G21     N/A  WCI  18
VAL MARIE        N/A     23  21  93 S9          N/A  WCI  13
ROCKGLEN         N/A     19  19 100 S15         N/A  WCI   5
ASSINIBOIA       N/A     32  28  86 SW12        N/A  WCI  23
$$




USA.gov is the U.S. government's official web portal to all federal, state and local government web resources and services.